Date String (YYYY-MM-DD hh:mm:ss) UTC,Instrument flags,absolute air pressure of the measurement (hPa),sample flow rate (lpm),inlet stack bypass flow (lpm),air temperature of the measurement (°C),ambient temperature measured by the external sensor (°C),aerosol sample conditioner tube jacket temperature (°C),OPC LED temperature (°C),internal box temperature (°C),relative humidity of the measurement (%),span deviation,mass concentration of particles derived from Lorenz-Mie calculation of OPC scattering (μg/m³),mass concentration of particles derived from Lorenz-Mie calculation of OPC scattering (μg/m³),mass concentration of particles derived from Lorenz-Mie calculation of OPC scattering (μg/m³)
DateTimeUTC,F1_M11,P_M11,Q1_M11,Q2_M11,T1_M11,T2_M11,T3_M11,T4_M11,T5_M11,U1_M11,ZSPAN_M11,X2_M11,X0_M11,X1_M11
2024-03-20 00:00:00,SystemResetWarning,0826.9,5.01,000.00,025.4,024.7,000.0,033.8,027.2,12.8,0000.0,0004.36,0011.28,0003.55
2024-03-20 00:01:00,SystemResetWarning,0826.9,5.00,000.00,025.4,024.7,000.0,033.8,027.2,12.6,0000.0,0004.33,0011.64,0003.54
2024-03-20 00:02:00,SystemResetWarning,0826.9,5.00,000.00,025.4,024.7,000.0,033.8,027.2,12.7,0000.0,0004.36,0011.67,0003.54
2024-03-20 00:03:00,SystemResetWarning,0826.9,4.99,000.00,025.4,024.7,000.0,033.8,027.2,12.9,0000.0,0004.36,0011.81,0003.53
2024-03-20 00:04:00,SystemResetWarning,0826.9,5.00,000.00,025.4,024.7,000.0,033.9,027.2,12.5,0000.0,0004.38,0011.59,0003.52
2024-03-20 00:05:00,SystemResetWarning,0826.9,5.00,000.00,025.4,024.7,000.0,033.9,027.3,12.8,0000.0,0004.36,0010.80,0003.51
2024-03-20 00:06:00,SystemResetWarning,0826.9,5.00,000.00,025.4,024.7,000.0,033.9,027.3,13.1,0000.0,0004.30,0010.82,0003.51
2024-03-20 00:07:00,SystemResetWarning,0826.9,5.02,000.00,025.5,024.7,000.0,033.9,027.3,13.1,0000.0,0004.25,0011.03,0003.47
2024-03-20 00:08:00,SystemResetWarning,0826.9,5.01,000.00,025.5,024.7,000.0,033.9,027.3,13.4,0000.0,0004.16,0010.55,0003.43
2024-03-20 00:09:00,SystemResetWarning,0826.9,4.98,000.00,025.5,024.8,000.0,033.9,027.3,13.2,0000.0,0004.12,0010.99,0003.40
2024-03-20 00:10:00,SystemResetWarning,0826.9,5.00,000.00,025.5,024.8,000.0,033.9,027.3,12.6,0000.0,0004.15,0010.84,0003.39
2024-03-20 00:11:00,SystemResetWarning,0826.9,5.02,000.00,025.5,024.8,000.0,033.9,027.3,12.4,0000.0,0004.23,0012.70,0003.40
2024-03-20 00:12:00,SystemResetWarning,0826.9,4.99,000.00,025.5,024.8,000.0,033.9,027.3,12.5,0000.0,0004.25,0012.79,0003.40
2024-03-20 00:13:00,SystemResetWarning,0826.9,4.99,000.00,025.5,024.8,000.0,033.9,027.3,12.8,0000.0,0004.23,0013.01,0003.38
2024-03-20 00:14:00,SystemResetWarning,0826.9,5.00,000.00,025.5,024.8,000.0,033.9,027.3,12.9,0000.0,0004.19,0012.83,0003.38
2024-03-20 00:15:00,SystemResetWarning,0826.9,5.00,000.00,025.5,024.8,000.0,034.0,027.3,12.7,0000.0,0004.20,0013.66,0003.39
2024-03-20 00:16:00,SystemResetWarning,0826.9,5.01,000.00,025.5,024.8,000.0,034.0,027.4,12.3,0000.0,0004.19,0013.85,0003.38
2024-03-20 00:17:00,SystemResetWarning,0826.9,5.01,000.00,025.5,024.9,000.0,034.0,027.4,12.2,0000.0,0004.25,0013.97,0003.38
2024-03-20 00:18:00,SystemResetWarning,0827.0,5.00,000.00,025.6,024.9,000.0,034.0,027.4,12.1,0000.0,0004.24,0014.07,0003.38
2024-03-20 00:19:00,SystemResetWarning,0826.9,5.00,000.00,025.6,024.9,000.0,034.0,027.4,12.0,0000.0,0004.27,0016.27,0003.39
2024-03-20 00:20:00,SystemResetWarning,0827.0,5.00,000.00,025.6,024.9,000.0,034.0,027.4,12.0,0000.0,0004.29,0015.71,0003.40
2024-03-20 00:21:00,SystemResetWarning,0827.0,5.00,000.00,025.6,024.9,000.0,034.0,027.4,12.1,0000.0,0004.26,0015.30,0003.40
2024-03-20 00:22:00,SystemResetWarning,0827.0,5.00,000.00,025.6,024.9,000.0,034.0,027.4,12.3,0000.0,0004.19,0014.76,0003.37
2024-03-20 00:23:00,SystemResetWarning,0826.9,5.00,000.00,025.6,024.9,000.0,034.0,027.4,12.2,0000.0,0004.15,0013.67,0003.35
2024-03-20 00:24:00,SystemResetWarning,0826.9,5.00,000.00,025.6,024.9,000.0,034.0,027.4,12.7,0000.0,0004.14,0013.32,0003.33
2024-03-20 00:25:00,SystemResetWarning,0826.9,5.00,000.00,025.6,024.9,000.0,034.0,027.4,12.9,0000.0,0004.11,0013.02,0003.30
2024-03-20 00:26:00,SystemResetWarning,0826.9,5.00,000.00,025.6,024.9,000.0,034.1,027.4,12.8,0000.0,0004.14,0012.76,0003.27
2024-03-20 00:27:00,SystemResetWarning,0826.9,4.99,000.00,025.6,024.9,000.0,034.1,027.5,12.7,0000.0,0004.16,0012.45,0003.25
2024-03-20 00:28:00,SystemResetWarning,0826.9,5.00,000.00,025.6,024.9,000.0,034.1,027.5,12.9,0000.0,0004.13,0012.52,0003.23
2024-03-20 00:29:00,SystemResetWarning,0826.9,5.01,000.00,025.7,025.0,000.0,034.1,027.5,12.6,0000.0,0004.11,0012.36,0003.22
2024-03-20 00:30:00,SystemResetWarning,0826.9,5.00,000.00,025.7,025.0,000.0,034.1,027.5,12.6,0000.0,0004.08,0010.28,0003.19
2024-03-20 00:31:00,SystemResetWarning,0826.9,5.00,000.00,025.7,025.0,000.0,034.1,027.5,12.6,0000.0,0004.05,0009.40,0003.17
2024-03-20 00:32:00,SystemResetWarning,0826.9,4.99,000.00,025.7,025.0,000.0,034.1,027.5,12.6,0000.0,0004.04,0009.49,0003.13
2024-03-20 00:33:00,SystemResetWarning,0826.9,5.00,000.00,025.7,025.0,000.0,034.1,027.5,12.6,0000.0,0004.00,0008.85,0003.11
2024-03-20 00:34:00,SystemResetWarning,0827.0,5.01,000.00,025.7,025.0,000.0,034.1,027.5,12.5,0000.0,0003.99,0008.83,0003.10
2024-03-20 00:35:00,SystemResetWarning,0827.0,5.01,000.00,025.7,025.1,000.0,034.1,027.6,12.4,0000.0,0003.95,0008.72,0003.09
2024-03-20 00:36:00,SystemResetWarning,0827.0,5.00,000.00,025.7,025.1,000.0,034.2,027.6,12.2,0000.0,0003.91,0008.85,0003.08
2024-03-20 00:37:00,SystemResetWarning,0827.0,5.00,000.00,025.7,025.1,000.0,034.2,027.6,12.3,0000.0,0003.87,0009.01,0003.10
2024-03-20 00:38:00,SystemResetWarning,0827.0,5.00,000.00,025.7,025.1,000.0,034.2,027.6,12.4,0000.0,0003.78,0008.88,0003.09
2024-03-20 00:39:00,SystemResetWarning,0827.0,4.99,000.00,025.8,025.1,000.0,034.2,027.6,12.4,0000.0,0003.76,0009.70,0003.05
2024-03-20 00:40:00,SystemResetWarning,0827.0,5.00,000.00,025.8,025.1,000.0,034.2,027.6,12.4,0000.0,0003.75,0010.66,0003.00
2024-03-20 00:41:00,SystemResetWarning,0826.9,5.01,000.00,025.8,025.1,000.0,034.2,027.6,12.5,0000.0,0003.74,0011.36,0002.98
2024-03-20 00:42:00,SystemResetWarning,0827.0,5.00,000.00,025.8,025.1,000.0,034.2,027.6,12.5,0000.0,0003.71,0012.03,0002.95
2024-03-20 00:43:00,SystemResetWarning,0826.9,4.99,000.00,025.8,025.1,000.0,034.2,027.7,12.6,0000.0,0003.69,0012.18,0002.94
2024-03-20 00:44:00,SystemResetWarning,0826.9,4.99,000.00,025.8,025.2,000.0,034.2,027.7,12.4,0000.0,0003.67,0012.32,0002.94
2024-03-20 00:45:00,SystemResetWarning,0826.9,5.00,000.00,025.8,025.2,000.0,034.3,027.7,12.4,0000.0,0003.69,0013.36,0002.92
2024-03-20 00:46:00,SystemResetWarning,0826.9,5.00,000.00,025.8,025.2,000.0,034.3,027.7,12.3,0000.0,0003.75,0014.24,0002.91
2024-03-20 00:47:00,SystemResetWarning,0826.9,5.00,000.00,025.9,025.2,000.0,034.3,027.7,12.3,0000.0,0003.78,0014.03,0002.91
2024-03-20 00:48:00,SystemResetWarning,0826.9,5.00,000.00,025.9,025.2,000.0,034.3,027.7,12.4,0000.0,0003.75,0013.72,0002.86
2024-03-20 00:49:00,SystemResetWarning,0827.0,4.99,000.00,025.9,025.2,000.0,034.3,027.7,12.4,0000.0,0003.73,0013.79,0002.82
2024-03-20 00:50:00,SystemResetWarning,0826.9,5.00,000.00,025.9,025.2,000.0,034.3,027.7,12.3,0000.0,0003.74,0013.62,0002.80
2024-03-20 00:51:00,SystemResetWarning,0827.0,5.01,000.00,025.9,025.2,000.0,034.3,027.7,12.3,0000.0,0003.74,0013.13,0002.79
2024-03-20 00:52:00,SystemResetWarning,0827.0,5.01,000.00,025.9,025.2,000.0,034.3,027.7,12.3,0000.0,0003.78,0013.27,0002.80
2024-03-20 00:53:00,SystemResetWarning,0827.0,5.00,000.00,025.9,025.2,000.0,034.4,027.8,12.3,0000.0,0003.76,0012.58,0002.79
2024-03-20 00:54:00,SystemResetWarning,0827.0,4.99,000.00,025.9,025.2,000.0,034.4,027.8,12.3,0000.0,0003.72,0012.60,0002.76
2024-03-20 00:55:00,SystemResetWarning,0826.9,5.00,000.00,025.9,025.3,000.0,034.4,027.8,12.3,0000.0,0003.70,0012.47,0002.73
2024-03-20 00:56:00,SystemResetWarning,0826.9,5.00,000.00,025.9,025.3,000.0,034.4,027.8,12.3,0000.0,0003.66,0011.59,0002.71
2024-03-20 00:57:00,SystemResetWarning,0827.0,5.00,000.00,026.0,025.3,000.0,034.4,027.8,12.3,0000.0,0003.59,0010.37,0002.68
2024-03-20 00:58:00,SystemResetWarning,0827.0,5.01,000.00,026.0,025.3,000.0,034.4,027.8,12.2,0000.0,0003.56,0010.54,0002.64
2024-03-20 00:59:00,SystemResetWarning,0827.0,5.00,000.00,026.0,025.3,000.0,034.4,027.8,12.1,0000.0,0003.53,0010.87,0002.61
